Weather History for Superior, WI

Change the Weather History Date:

Saturday, January 18, 2014

  Actual Average Record
Temperature  
Mean Temperature 10 °F -  
Max Temperature 21 °F 21 °F 44 °F (1981)
Min Temperature 0 °F 3 °F -32 °F (1967)
Degree Days  
Heating Degree Days 54    
Moisture  
Dew Point 3 °F    
Average Humidity 65    
Maximum Humidity 83    
Minimum Humidity 43    
Precipitation  
Precipitation 0.00 in - - ()
Sea Level Pressure  
Sea Level Pressure 29.78 in    
Wind  
Wind Speed 4 mph (South)    
Max Wind Speed 16 mph    
Max Gust Speed 24 mph    
Visibility 10 miles    
Events      
Averages and records for this station are not official NWS values.
T = Trace of Precipitation, MM = Missing Value Source: NWS Daily Summary

Daily Weather History Graph

Daily Weather History Graph

Search for Another Location

Airport:

Trip Planner

Search our weather history database for the weather conditions in past years. The results will help you decide how hot, cold, wet, or windy it might be!

Date:

Astronomy

Jan. 18, 2014 Rise Set
Actual Time 7:46 AM CST 4:51 PM CST
Civil Twilight 7:12 AM CST 5:25 PM CST
Nautical Twilight 6:35 AM CST 6:02 PM CST
Astronomical Twilight 5:59 AM CST 6:38 PM CST
Moon 7:46 PM CST 8:35 AM CST
Length of Visible Light 10h 12m
Length of Day
9h 05m
Waning Gibbous, 94% of the Moon is Illuminated
Jan 18
Waning Gibbous
Jan 23
Last Quarter
Jan 30
New
Feb 6
First Quarter
Feb 14
Full

Hourly Weather History & Observations

Time (CST) Temp. Windchill Dew Point Humidity Pressure Visibility Wind Dir Wind Speed Gust Speed Precip Events Conditions
12:15 AM -0.0 °F - -4.0 °F 83% 29.81 in 10.0 mi Calm Calm - N/A   Mostly Cloudy
12:35 AM 1.2 °F - -2.7 °F 83% 29.80 in 10.0 mi Calm Calm - N/A   Overcast
12:55 AM 1.8 °F - -2.4 °F 83% 29.79 in 10.0 mi Calm Calm - N/A   Overcast
1:15 AM 1.8 °F - -2.4 °F 83% 29.77 in 10.0 mi Calm Calm - N/A   Overcast
1:35 AM 2.3 °F - -1.8 °F 83% 29.76 in 10.0 mi Calm Calm - N/A   Overcast
1:55 AM 3.2 °F - -1.3 °F 82% 29.75 in 10.0 mi Calm Calm - N/A   Overcast
2:15 AM 3.9 °F - -1.1 °F 80% 29.75 in 10.0 mi Calm Calm - N/A   Overcast
2:35 AM 5.2 °F -1.9 °F -1.3 °F 75% 29.75 in 10.0 mi East 3.5 mph - N/A   Overcast
2:55 AM 5.7 °F -3.2 °F -1.3 °F 73% 29.75 in 10.0 mi ESE 4.6 mph - N/A   Overcast
3:15 AM 5.9 °F -3.0 °F -1.5 °F 72% 29.75 in 10.0 mi ESE 4.6 mph - N/A   Overcast
3:35 AM 5.9 °F -3.0 °F -1.3 °F 72% 29.74 in 10.0 mi East 4.6 mph - N/A   Overcast
3:55 AM 6.3 °F -0.7 °F -0.9 °F 72% 29.74 in 10.0 mi East 3.5 mph - N/A   Overcast
4:15 AM 6.4 °F -2.4 °F -1.1 °F 71% 29.75 in 10.0 mi East 4.6 mph - N/A   Overcast
4:35 AM 6.3 °F -5.4 °F -1.3 °F 71% 29.75 in 10.0 mi East 6.9 mph - N/A   Overcast
4:55 AM 6.4 °F -3.9 °F -0.9 °F 72% 29.75 in 10.0 mi East 5.8 mph - N/A   Overcast
5:15 AM 6.4 °F -2.4 °F -0.9 °F 72% 29.74 in 10.0 mi East 4.6 mph - N/A   Overcast
5:35 AM 6.6 °F -3.7 °F -0.9 °F 71% 29.74 in 10.0 mi East 5.8 mph - N/A   Overcast
5:55 AM 6.8 °F -4.8 °F -0.4 °F 72% 29.74 in 10.0 mi East 6.9 mph - N/A   Overcast
6:15 AM 7.2 °F 0.3 °F -0.4 °F 71% 29.75 in 10.0 mi East 3.5 mph - N/A   Scattered Clouds
6:35 AM 7.5 °F -1.1 °F 0.9 °F 74% 29.76 in 10.0 mi East 4.6 mph - N/A   Clear
6:55 AM 6.1 °F -0.9 °F 0.3 °F 77% 29.77 in 10.0 mi ESE 3.5 mph - N/A   Clear
7:15 AM 6.1 °F -2.8 °F 1.4 °F 81% 29.78 in 10.0 mi ESE 4.6 mph - N/A   Clear
7:35 AM 6.4 °F -0.5 °F 0.3 °F 76% 29.79 in 10.0 mi East 3.5 mph - N/A   Mostly Cloudy
7:55 AM 6.4 °F -3.9 °F -0.6 °F 73% 29.80 in 10.0 mi East 5.8 mph - N/A   Overcast
8:15 AM 6.3 °F -2.6 °F -0.9 °F 72% 29.81 in 10.0 mi East 4.6 mph - N/A   Overcast
8:35 AM 6.8 °F -2.0 °F -0.4 °F 72% 29.82 in 10.0 mi ESE 4.6 mph - N/A   Overcast
8:55 AM 7.7 °F - 0.3 °F 72% 29.83 in 10.0 mi Calm Calm - N/A   Overcast
9:15 AM 8.8 °F - -0.0 °F 67% 29.84 in 10.0 mi Calm Calm - N/A   Scattered Clouds
9:35 AM 9.5 °F -0.3 °F -0.4 °F 64% 29.85 in 10.0 mi ESE 5.8 mph - N/A   Clear
9:55 AM 10.4 °F 2.2 °F -0.0 °F 63% 29.87 in 10.0 mi SSE 4.6 mph - N/A   Clear
10:15 AM 10.9 °F 4.7 °F 0.5 °F 63% 29.88 in 10.0 mi SSE 3.5 mph - N/A   Clear
10:35 AM 12.0 °F 5.9 °F 0.9 °F 61% 29.88 in 10.0 mi East 3.5 mph - N/A   Clear
10:55 AM 12.6 °F - 1.4 °F 61% 29.89 in 10.0 mi Calm Calm - N/A   Clear
11:15 AM 14.0 °F - 2.5 °F 60% 29.89 in 10.0 mi Calm Calm - N/A   Clear
11:35 AM 14.5 °F - 3.7 °F 62% 29.90 in 10.0 mi Calm Calm - N/A   Clear
11:55 AM 14.7 °F 7.3 °F 4.6 °F 64% 29.90 in 10.0 mi North 4.6 mph - N/A   Clear
12:15 PM 14.9 °F 7.5 °F 5.0 °F 65% 29.90 in 10.0 mi NW 4.6 mph - N/A   Clear
12:35 PM 15.4 °F 9.8 °F 5.5 °F 65% 29.89 in 10.0 mi North 3.5 mph - N/A   Clear
12:55 PM 15.8 °F - 6.4 °F 67% 29.88 in 10.0 mi Calm Calm - N/A   Clear
1:15 PM 16.3 °F - 6.1 °F 64% 29.88 in 10.0 mi Calm Calm - N/A   Clear
1:35 PM 16.7 °F - 6.4 °F 64% 29.87 in 10.0 mi Calm Calm - N/A   Clear
1:55 PM 17.6 °F 9.3 °F 5.7 °F 60% 29.86 in 10.0 mi South 5.8 mph - N/A   Clear
2:15 PM 18.3 °F 10.2 °F 5.4 °F 57% 29.84 in 10.0 mi SSW 5.8 mph - N/A   Clear
2:35 PM 19.2 °F 10.2 °F 5.0 °F 54% 29.85 in 10.0 mi SSW 6.9 mph - N/A   Clear
2:55 PM 20.1 °F 10.3 °F 4.8 °F 52% 29.85 in 10.0 mi WSW 8.1 mph - N/A   Clear
3:15 PM 20.3 °F 10.6 °F 4.8 °F 51% 29.85 in 10.0 mi SW 8.1 mph - N/A   Clear
3:35 PM 20.5 °F 12.8 °F 5.0 °F 51% 29.86 in 10.0 mi SW 5.8 mph - N/A   Clear
3:55 PM 21.7 °F 14.3 °F 4.1 °F 47% 29.86 in 10.0 mi WSW 5.8 mph - N/A   Clear
4:15 PM 21.2 °F 12.6 °F 3.7 °F 47% 29.86 in 10.0 mi SW 6.9 mph - N/A   Clear
4:35 PM 19.4 °F 10.4 °F 3.4 °F 50% 29.86 in 10.0 mi SW 6.9 mph - N/A   Clear
4:55 PM 20.1 °F 11.3 °F 3.2 °F 48% 29.86 in 10.0 mi WSW 6.9 mph - N/A   Clear
5:15 PM 20.3 °F 9.8 °F 3.7 °F 49% 29.84 in 10.0 mi SW 9.2 mph - N/A   Clear
5:35 PM 20.3 °F 8.3 °F 3.0 °F 47% 29.82 in 10.0 mi WSW 11.5 mph - N/A   Clear
5:55 PM 20.3 °F 10.6 °F 0.7 °F 43% 29.82 in 10.0 mi WSW 8.1 mph - N/A   Clear
6:15 PM 19.8 °F 9.9 °F 2.1 °F 46% 29.80 in 10.0 mi SW 8.1 mph - N/A   Clear
6:35 PM 19.0 °F 8.2 °F 3.0 °F 50% 29.78 in 10.0 mi SW 9.2 mph - N/A   Clear
6:55 PM 19.9 °F 8.6 °F 3.7 °F 50% 29.76 in 10.0 mi SW 10.4 mph - N/A   Scattered Clouds
7:15 PM 20.8 °F 9.7 °F 3.9 °F 48% 29.76 in 10.0 mi WSW 10.4 mph - N/A   Overcast
7:35 PM 20.8 °F 9.0 °F 5.0 °F 50% 29.74 in 10.0 mi WSW 11.5 mph - N/A   Overcast
7:55 PM 21.2 °F 8.9 °F 6.4 °F 53% 29.72 in 10.0 mi WSW 12.7 mph 17.3 mph N/A   Overcast
8:15 PM 21.2 °F 8.3 °F 7.9 °F 57% 29.70 in 10.0 mi WSW 13.8 mph 20.7 mph N/A   Overcast
8:35 PM 21.2 °F 7.8 °F 9.0 °F 59% 29.68 in 10.0 mi WSW 15.0 mph - N/A   Mostly Cloudy
8:55 PM 21.2 °F 8.3 °F 10.2 °F 63% 29.67 in 10.0 mi WSW 13.8 mph - N/A   Scattered Clouds
9:15 PM 21.2 °F 7.3 °F 11.1 °F 65% 29.66 in 10.0 mi West 16.1 mph 24.2 mph N/A   Scattered Clouds
9:35 PM 21.2 °F 7.3 °F 11.7 °F 67% 29.66 in 10.0 mi West 16.1 mph 20.7 mph N/A   Mostly Cloudy
9:55 PM 21.2 °F 7.8 °F 12.4 °F 69% 29.63 in 10.0 mi WSW 15.0 mph 20.7 mph N/A   Overcast
10:15 PM 21.2 °F 8.3 °F 12.9 °F 70% 29.62 in 10.0 mi WSW 13.8 mph - N/A   Overcast
10:35 PM 21.2 °F 7.8 °F 13.1 °F 71% 29.61 in 10.0 mi WSW 15.0 mph 20.7 mph N/A   Overcast
10:55 PM 21.2 °F 7.8 °F 13.8 °F 73% 29.59 in 10.0 mi WSW 15.0 mph - N/A   Overcast
11:15 PM 21.6 °F 8.2 °F 14.2 °F 73% 29.59 in 10.0 mi WSW 15.0 mph 20.7 mph N/A   Overcast
11:35 PM 21.7 °F 9.0 °F 14.9 °F 75% 29.57 in 10.0 mi WSW 13.8 mph 18.4 mph N/A   Overcast
11:55 PM 21.9 °F 9.2 °F 15.4 °F 76% 29.56 in 10.0 mi WSW 13.8 mph - N/A   Overcast